Regional Weather Roundup
Issued by NWS Upton, NY

Current Version | Previous Version | Text Only | Print | Product List | Glossary On
Versions: 1 2 3 4 5 6 7 8 9 10 11 12 13 14 15 16 17 18 19 20 21 22 23 24 25 26 27
000
ASUS41 KOKX 201908
RWROKX

REGIONAL WEATHER ROUNDUP
NATIONAL WEATHER SERVICE NEW YORK NY
200 PM EST MON FEB 20 2017

NOTE: "FAIR" INDICATES FEW OR NO CLOUDS BELOW 12,000 FEET WITH NO
SIGNIFICANT WEATHER AND/OR OBSTRUCTIONS TO VISIBILITY.

NYZ071-072-176-178-NJZ106-104-202000-
NEW YORK CITY METRO AREA

CITY           SKY/WX    TMP DP  RH WIND       PRES   REMARKS
Central Park   SUNNY     54  16  22 MISG      30.19F
Wall St Helipt NOT AVBL
LaGuardia APRT SUNNY     54  21  27 NW13      30.16F
Kennedy INTL   MOSUNNY   55  23  28 NW9G20    30.17F
Breezy Point     N/A     52 N/A N/A NW8G15      N/A
Newark/Liberty MOSUNNY   55  14  19 NW17G24   30.17F
Teterboro      SUNNY     55  20  25 NW15      30.16F
$$

NYZ177-179-078>081-202000-
LONG ISLAND NEW YORK

CITY           SKY/WX    TMP DP  RH WIND       PRES   REMARKS
Jones Beach      N/A     52 N/A N/A NW10        N/A
Matinecock PT    N/A     52 N/A N/A NW18        N/A
Farmingdale    SUNNY     53  21  28 N13G21    30.16S
MacArthur/ISP  SUNNY     51  18  27 N20       30.15F
Shirley        SUNNY     50  15  24 N18G28    30.16F
Westhampton    SUNNY     49  18  29 NW20G26   30.16F
Southampton    NOT AVBL
Bridgehampton  NOT AVBL
East Hampton     N/A     48  23  37 NW10G16   30.14S
Montauk          N/A     47  27  45 NW9       30.15S
$$

NYZ052-065-067-202000-
HUDSON VALLEY

CITY           SKY/WX    TMP DP  RH WIND       PRES   REMARKS
White Plains   SUNNY     53  20  27 NW17      30.15F
Newburgh       NOT AVBL
Montgomery     SUNNY     52  14  22 NW13G20   30.16F
Poughkeepsie   SUNNY     47  16  29 N15       30.20R
Albany         MOSUNNY   42  19  39 N10       30.26R
$$

NJZ001-105-106-008-010-013-015-019>022-104-202000-
NEW JERSEY

CITY           SKY/WX    TMP DP  RH WIND       PRES   REMARKS
Newark/Liberty MOSUNNY   55  14  19 NW17G24   30.17F
Teterboro      SUNNY     55  20  25 NW15      30.16F
Caldwell       SUNNY     54  14  20 N9        30.18F
Somerville     SUNNY     55  18  23 NW13G18   30.17F
Linden         NOT AVBL
Sussex         SUNNY     50  18  28 NW8       30.20F
Andover          N/A     50  12  21 NW12G23   30.19F
Trenton        SUNNY     55  26  32 N14G21    30.18F
Millville      SUNNY     58  31  35 NW13G20   30.18F
Atlantic City  SUNNY     59  25  27 N15       30.16F
Wrightstown    SUNNY     55  29  36 NW12G26   30.16F
Toms River     SUNNY     55  25  31 N16       30.18F
Belmar         SUNNY     55  21  26 NW17G26   30.17F
$$

PAZ047>061-062-071-202000-
EASTERN PENNSYLVANIA

CITY           SKY/WX    TMP DP  RH WIND       PRES   REMARKS
Philadelphia   MOSUNNY   57  25  29 N15G21    30.20F
Allentown      SUNNY     55  22  27 NW12G20   30.20F
Scranton       SUNNY     48  23  37 N10G21    30.22F
$$

CTZ002-004>006-009-010-012-RIZ004-006-007-MAZ004-011-015-202000-
SOUTHERN NEW ENGLAND
 IN CT

CITY           SKY/WX    TMP DP  RH WIND       PRES   REMARKS
Bradley INTL   MOSUNNY   45  23  42 NE9       30.17R
Hartford       SUNNY     46  22  38 NE13      30.17R
Danbury        SUNNY     47  15  27 N14G26    30.18S
Wtrbury/Oxford SUNNY     45  18  33 NW8G18    30.17F
Bridgeport     SUNNY     51  14  22 NW15G25   30.16S
Meriden        SUNNY     49  15  25 N8G18     30.16R
New Haven      MOSUNNY   48  19  31 NW13G22   30.16R
Chester          N/A     48  19  32 VRB7      30.14S
Groton         SUNNY     49  19  30 N16G22    30.13S
Wilimantic     SUNNY     47  12  24 NW12      30.15F

 IN RI

CITY           SKY/WX    TMP DP  RH WIND       PRES   REMARKS
Providence     MOSUNNY   47  13  25 N14G23    30.14S
Block Island   SUNNY     47  23  38 N12       30.13S
Westerly       SUNNY     50  13  22 N14       30.14S
 IN MA

CITY           SKY/WX    TMP DP  RH WIND       PRES   REMARKS
Boston         MOSUNNY   44  18  35 NW15G23   30.15S
Worcester      SUNNY     41   8  25 N16       30.13R
Westfield      SUNNY     44  15  31 N9        30.17R
Provincetown   SUNNY     40  26  57 N14       30.15S WCI  32
Nantucket      PTSUNNY   42  28  57 N22G29    30.12S
$$

ANZ330-335-338-340-345-350-353-355-202000-
COASTAL MARINE OBSERVATIONS


STATION/POSITION TIME  SKY/WX   TEMP    WIND        PRES    VSBY  WAVE
                                AIR SEA DIR/SP/G                  HT/PER
                 (UTC)          (F)     (DEG/KT/KT) (MB)    (MI)  (FT/S)
NY HARB ENTRANCE 1750            47 43  300/ 10/ 14 1021.6          1/ 8
20 S FIRE ISLAND 1850            43 41  340/  6/  6 1021.1          2/ 8
GREAT SOUTH BAY  NOT AVBL
23 SSW MONTAUK P 1750            44 44              1020.6          2/ 3
15 E BARNEGAT LI 1830               43                N/A           2/ 4
HUDSON CANYON    1750               50              1020.6          4/ 5
KINGS POINT      1836            47 39              1021.3
EXECUTION ROCKS  NOT AVBL
CENTRAL LI SOUND 1815            43     290/  8/ 10   N/A           0
EASTERN LI SOUND NOT AVBL
ROBBINS REEF     1842            52     320/ 15/ 21 1021.7
$$


>>>>>>>>>>>>>>>>>>>>>>>>>>>> KEY <<<<<<<<<<<<<<<<<<<<<<<<<<<
>                                                          <
>     SKY/WX - Sky Condition/Present Weather               <
>     TMP    - Temperature in Fahrenheit                   <
>     DP     - Dew Point in Fahrenheit                     <
>     RH     - Relative Humidity in Percent                <
>     WIND   - Direction (from) and Speed in MPH           <
>     PRES   - Mean Sea Level Pressure (inches of Hg)      <
>     WCI    - Wind Chill Index                            <
>     VSB    - VISIBILITY IN MILES                         <
>     HX     - HEAT INDEX                                  <
>     TC     - TEMPERATURE IN CELSIUS                      <
>     VRB    - VARIABLE WIND DIRECTION                     <
>                                                          <
>>>>>>>>>>>>>>>>>>>>>>>>>>>> KEY <<<<<<<<<<<<<<<<<<<<<<<<<<<




USA.gov is the U.S. government's official web portal to all federal, state and local government web resources and services.